User: anonymous   Login
Location: Unspecified
(0.0000°N, 0.0000°E)
Time: 19:47:12
(UTC+00:00)
Language:

UNK - Orbit

View from above orbital plane
View from above orbital plane
View from above satellite
View from above satellite

Ground track
Ground track

The orbit data is extracted from the following two-line orbital elements,

1 27945U 03042G   17268.90145317 +.00000040 +00000-0 +16112-4 0  9999
2 27945 097.9587 047.2973 0010871 291.0256 068.9784 14.64751982747342
Epoch (UTC): 25 September 2017 21:38:05
Eccentricity: 0.0010871
inclination: 97.9587°
perigee height: 670 km
apogee height: 685 km
right ascension of ascending node: 47.2973°
argument of perigee: 291.0256°
revolutions per day: 14.64751982
mean anomaly at epoch: 68.9784°
orbit number at epoch: 74734

The dashed part of the orbit path shows where the satellite is in the earth's shadow,  

DLR